Weather History for Hillsboro, TX

Change the Weather History Date:

Monday, January 21, 2013

  Actual Average (KACT) Record (KACT)
Temperature  
Mean Temperature 47 °F 47 °F  
Max Temperature 57 °F 59 °F 82 °F (1999)
Min Temperature 37 °F 36 °F 14 °F (1984)
Degree Days  
Heating Degree Days 18 18  
Month to date heating degree days 383  
Since 1 July heating degree days 1235  
Cooling Degree Days 0 0  
Month to date cooling degree days 0  
Year to date cooling degree days 0  
Moisture  
Dew Point 34 °F    
Average Humidity 63    
Maximum Humidity 87    
Minimum Humidity 38    
Precipitation  
Precipitation 0.00 in 0.07 in 1.94 in (1965)
Month to date precipitation 1.37  
Year to date precipitation 1.37  
Snow  
Snow 0.00 in 0.00 in 2.60 in (1966)
Month to date snowfall 0.2  
Since 1 July snowfall 0.3  
Snow Depth -    
Sea Level Pressure  
Sea Level Pressure 30.21 in    
Wind  
Wind Speed 6 mph (North)    
Max Wind Speed 17 mph    
Max Gust Speed 23 mph    
Visibility 10 miles    
Events      
T = Trace of Precipitation, MM = Missing Value Source: NWS Daily Summary

Daily Weather History Graph

Daily Weather History Graph

Search for Another Location

Airport:

Trip Planner

Search our weather history database for the weather conditions in past years. The results will help you decide how hot, cold, wet, or windy it might be!

Date:

Astronomy

Jan. 21, 2013 Rise Set
Actual Time 7:27 AM CST 5:52 PM CST
Civil Twilight 7:01 AM CST 6:18 PM CST
Nautical Twilight 6:31 AM CST 6:48 PM CST
Astronomical Twilight 6:02 AM CST 7:17 PM CST
Moon 1:34 PM CST (1/21) 2:56 AM CST (1/21)
Length of Visible Light 11h 17m
Length of Day
10h 24m
Waxing Gibbous, 75% of the Moon is Illuminated
Jan 21
Waxing Gibbous
Jan 26
Full
Feb 3
Last Quarter
Feb 10
New
Feb 17
First Quarter

Hourly Weather History & Observations

Time (CST) Temp. Windchill Dew Point Humidity Pressure Visibility Wind Dir Wind Speed Gust Speed Precip Events Conditions
12:15 AM 46.4 °F 45.2 °F 41.0 °F 81% 30.12 in 10.0 mi SSE 3.5 mph - N/A   Clear
12:35 AM 46.4 °F - 41.0 °F 81% 30.13 in 10.0 mi Calm Calm - N/A   Clear
12:55 AM 46.4 °F - 41.0 °F 81% 30.13 in 10.0 mi Calm Calm - N/A   Clear
1:15 AM 46.4 °F - 41.0 °F 81% 30.13 in 10.0 mi Calm Calm - N/A   Clear
1:35 AM 44.6 °F - 39.2 °F 81% 30.14 in 10.0 mi Calm Calm - N/A   Clear
1:55 AM 46.4 °F - 41.0 °F 81% 30.14 in 10.0 mi Calm Calm - N/A   Clear
2:15 AM 42.8 °F - 37.4 °F 81% 30.14 in 10.0 mi Calm Calm - N/A   Clear
2:35 AM 48.2 °F - 42.8 °F 82% 30.14 in 10.0 mi Calm Calm - N/A   Clear
2:55 AM 46.4 °F - 41.0 °F 81% 30.14 in 10.0 mi Calm Calm - N/A   Clear
3:15 AM 41.0 °F - 35.6 °F 81% 30.14 in 10.0 mi Calm Calm - N/A   Clear
3:35 AM 41.0 °F 38.0 °F 37.4 °F 87% 30.14 in 10.0 mi North 4.6 mph - N/A   Clear
3:55 AM 44.6 °F 43.1 °F 37.4 °F 76% 30.13 in 10.0 mi North 3.5 mph - N/A   Clear
4:15 AM 42.8 °F - 35.6 °F 76% 30.14 in 10.0 mi Calm Calm - N/A   Clear
4:35 AM 41.0 °F - 33.8 °F 76% 30.14 in 10.0 mi Calm Calm - N/A   Clear
4:55 AM 41.0 °F - 35.6 °F 81% 30.15 in 10.0 mi Calm Calm - N/A   Clear
5:15 AM 37.4 °F 31.4 °F 32.0 °F 81% 30.15 in 10.0 mi NNW 8.1 mph - N/A   Clear
5:35 AM 42.8 °F 37.0 °F 37.4 °F 81% 30.15 in 10.0 mi NNW 10.4 mph - N/A   Clear
5:55 AM 44.6 °F 39.7 °F 37.4 °F 76% 30.16 in 10.0 mi NNW 9.2 mph - N/A   Clear
6:15 AM 42.8 °F 36.6 °F 37.4 °F 81% 30.17 in 10.0 mi NNW 11.5 mph - N/A   Clear
6:35 AM 42.8 °F 35.4 °F 37.4 °F 81% 30.18 in 10.0 mi North 15.0 mph - N/A   Clear
6:55 AM 42.8 °F 34.8 °F 37.4 °F 81% 30.19 in 10.0 mi North 17.3 mph - N/A   Clear
7:15 AM 42.8 °F 35.1 °F 37.4 °F 81% 30.20 in 10.0 mi North 16.1 mph 20.7 mph N/A   Clear
7:35 AM 41.0 °F 32.5 °F 35.6 °F 81% 30.21 in 10.0 mi North 17.3 mph 21.9 mph N/A   Clear
7:55 AM 41.0 °F 32.5 °F 33.8 °F 76% 30.22 in 10.0 mi North 17.3 mph 23.0 mph N/A   Clear
8:15 AM 41.0 °F 33.5 °F 33.8 °F 76% 30.22 in 10.0 mi North 13.8 mph 23.0 mph N/A   Clear
8:35 AM 42.8 °F 35.4 °F 33.8 °F 70% 30.23 in 10.0 mi North 15.0 mph 19.6 mph N/A   Clear
8:55 AM 42.8 °F 35.8 °F 33.8 °F 70% 30.24 in 10.0 mi North 13.8 mph 19.6 mph N/A   Clear
9:15 AM 44.6 °F 40.2 °F 33.8 °F 66% 30.25 in 10.0 mi North 8.1 mph - N/A   Clear
9:35 AM 44.6 °F 38.4 °F 33.8 °F 66% 30.26 in 10.0 mi NNW 12.7 mph - N/A   Clear
9:55 AM 46.4 °F 40.7 °F 32.0 °F 57% 30.26 in 10.0 mi North 12.7 mph 19.6 mph N/A   Clear
10:15 AM 46.4 °F 40.4 °F 32.0 °F 57% 30.28 in 10.0 mi North 13.8 mph 18.4 mph N/A   Clear
10:35 AM 46.4 °F 41.5 °F 32.0 °F 57% 30.29 in 10.0 mi North 10.4 mph 17.3 mph N/A   Clear
10:55 AM 48.2 °F - 32.0 °F 54% 30.28 in 10.0 mi North 13.8 mph - N/A   Clear
11:15 AM 50.0 °F - 32.0 °F 50% 30.28 in 10.0 mi NNW 11.5 mph - N/A   Clear
11:35 AM 51.8 °F - 32.0 °F 47% 30.27 in 10.0 mi NNW 11.5 mph 17.3 mph N/A   Clear
11:55 AM 51.8 °F - 32.0 °F 47% 30.27 in 10.0 mi North 9.2 mph - N/A   Clear
12:15 PM 53.6 °F - 32.0 °F 44% 30.26 in 10.0 mi North 11.5 mph - N/A   Clear
12:35 PM 53.6 °F - 32.0 °F 44% 30.26 in 10.0 mi NNW 12.7 mph 19.6 mph N/A   Clear
12:55 PM 53.6 °F - 32.0 °F 44% 30.25 in 10.0 mi North 11.5 mph 17.3 mph N/A   Clear
1:15 PM 55.4 °F - 32.0 °F 41% 30.24 in 10.0 mi NNW 11.5 mph 16.1 mph N/A   Clear
1:35 PM 55.4 °F - 32.0 °F 41% 30.24 in 10.0 mi NW 11.5 mph 17.3 mph N/A   Clear
1:55 PM 55.4 °F - 32.0 °F 41% 30.23 in 10.0 mi NNW 12.7 mph - N/A   Clear
2:15 PM 55.4 °F - 33.8 °F 44% 30.23 in 10.0 mi NNW 10.4 mph - N/A   Clear
2:35 PM 57.2 °F - 32.0 °F 38% 30.23 in 10.0 mi NNW 11.5 mph - N/A   Clear
2:55 PM 57.2 °F - 33.8 °F 41% 30.23 in 10.0 mi North 9.2 mph - N/A   Clear
3:15 PM 57.2 °F - 32.0 °F 38% 30.23 in 10.0 mi North 8.1 mph - N/A   Clear
3:35 PM 57.2 °F - 33.8 °F 41% 30.22 in 10.0 mi North 6.9 mph - N/A   Clear
3:55 PM 57.2 °F - 33.8 °F 41% 30.23 in 10.0 mi North 9.2 mph - N/A   Clear
4:15 PM 57.2 °F - 33.8 °F 41% 30.23 in 10.0 mi NNE 5.8 mph - N/A   Clear
4:35 PM 55.4 °F - 33.8 °F 44% 30.22 in 10.0 mi North 6.9 mph - N/A   Clear
4:55 PM 55.4 °F - 32.0 °F 41% 30.22 in 7.0 mi North 6.9 mph - N/A   Clear
5:15 PM 55.4 °F - 32.0 °F 41% 30.22 in 10.0 mi North 5.8 mph - N/A   Clear
5:35 PM 53.6 °F - 32.0 °F 44% 30.22 in 10.0 mi North 4.6 mph - N/A   Clear
5:55 PM 50.0 °F - 32.0 °F 50% 30.22 in 10.0 mi North 5.8 mph - N/A   Clear
6:15 PM 48.2 °F - 32.0 °F 54% 30.23 in 10.0 mi NNW 4.6 mph - N/A   Clear
6:35 PM 46.4 °F 44.3 °F 32.0 °F 57% 30.23 in 10.0 mi NNW 4.6 mph - N/A   Clear
6:55 PM 46.4 °F 44.3 °F 32.0 °F 57% 30.23 in 10.0 mi North 4.6 mph - N/A   Clear
7:15 PM 46.4 °F 45.2 °F 32.0 °F 57% 30.23 in 10.0 mi North 3.5 mph - N/A   Clear
7:35 PM 42.8 °F 39.3 °F 32.0 °F 66% 30.24 in 10.0 mi North 5.8 mph - N/A   Clear
7:55 PM 44.6 °F 41.4 °F 32.0 °F 61% 30.24 in 10.0 mi North 5.8 mph - N/A   Clear
8:15 PM 44.6 °F 42.2 °F 32.0 °F 61% 30.24 in 10.0 mi North 4.6 mph - N/A   Clear
8:35 PM 44.6 °F 41.4 °F 32.0 °F 61% 30.23 in 10.0 mi North 5.8 mph - N/A   Clear
8:55 PM 39.2 °F 34.2 °F 30.2 °F 70% 30.24 in 10.0 mi North 6.9 mph - N/A   Clear
9:15 PM 42.8 °F 40.1 °F 32.0 °F 66% 30.24 in 10.0 mi North 4.6 mph - N/A   Clear
9:35 PM 42.8 °F 41.1 °F 32.0 °F 66% 30.24 in 10.0 mi North 3.5 mph - N/A   Clear
9:55 PM 41.0 °F 37.1 °F 32.0 °F 70% 30.24 in 10.0 mi North 5.8 mph - N/A   Clear
10:15 PM 41.0 °F 37.1 °F 32.0 °F 70% 30.24 in 10.0 mi North 5.8 mph - N/A   Clear
10:35 PM 39.2 °F 35.0 °F 32.0 °F 75% 30.25 in 10.0 mi NNW 5.8 mph - N/A   Clear
10:55 PM 41.0 °F 35.8 °F 32.0 °F 70% 30.24 in 10.0 mi North 8.1 mph - N/A   Clear
11:15 PM 44.6 °F 40.2 °F 32.0 °F 61% 30.24 in 10.0 mi North 8.1 mph - N/A   Clear
11:35 PM 44.6 °F 40.2 °F 32.0 °F 61% 30.24 in 10.0 mi North 8.1 mph - N/A   Clear
11:55 PM 44.6 °F 40.7 °F 30.2 °F 57% 30.24 in 10.0 mi NNE 6.9 mph - N/A   Clear